Estación de El Monte
Ultimos registro cada 15 minutos 40
| N° | Estación | Fecha / Hora | Temperatura | Humedad | Lluvia | Velocidad | Dirección | Radiación | Presion |
| 40 | El Monte | 09-05-2026 09:45 | 11,3 | 88 | 0 | 0,9 | 160 | 318 | 1019,5 |
| 39 | El Monte | 09-05-2026 09:30 | 10,7 | 89 | 0 | 0,9 | 137 | 281 | 1019,5 |
| 38 | El Monte | 09-05-2026 09:15 | 10,1 | 90 | 0 | 0,9 | 270 | 253 | 1019,9 |
| 37 | El Monte | 09-05-2026 09:00 | 9,2 | 93 | 0 | 1,8 | 133 | 218 | 1019,5 |
| 36 | El Monte | 09-05-2026 08:45 | 8,6 | 94 | 0 | 0 | 79 | 37 | 1019,7 |
| 35 | El Monte | 09-05-2026 08:30 | 8,1 | 95 | 0 | 0,9 | 96 | 33 | 1019,7 |
| 34 | El Monte | 09-05-2026 08:15 | 7,3 | 95 | 0,2 | 1,8 | 113 | 26 | 1019,5 |
| 33 | El Monte | 09-05-2026 08:00 | 7,2 | 95 | 0 | 1,8 | 71 | 23 | 1019,6 |
| 32 | El Monte | 09-05-2026 07:45 | 7,3 | 95 | 0 | 0,4 | 97 | 16 | 1019,5 |
| 31 | El Monte | 09-05-2026 07:30 | 7,3 | 96 | 0 | 1,3 | 77 | 5 | 1019,5 |
| 30 | El Monte | 09-05-2026 07:15 | 6,8 | 95 | 0 | 1,3 | 136 | 0 | 1019,5 |
| 29 | El Monte | 09-05-2026 07:00 | 6,7 | 94 | 0 | 0 | 129 | 0 | 1019,4 |
| 28 | El Monte | 09-05-2026 06:45 | 7,4 | 94 | 0 | 0,9 | 158 | 0 | 1019,4 |
| 27 | El Monte | 09-05-2026 06:30 | 7,6 | 95 | 0 | 0,4 | 91 | 0 | 1019,3 |
| 26 | El Monte | 09-05-2026 06:15 | 7,5 | 95 | 0 | 0,9 | 97 | 0 | 1019,3 |
| 25 | El Monte | 09-05-2026 06:00 | 7,4 | 95 | 0 | 0 | 148 | 0 | 1019,2 |
| 24 | El Monte | 09-05-2026 05:45 | 7,2 | 94 | 0 | 0,4 | 137 | 0 | 1019,2 |
| 23 | El Monte | 09-05-2026 05:30 | 7,6 | 94 | 0 | 0 | 135 | 0 | 1019 |
| 22 | El Monte | 09-05-2026 05:15 | 7,7 | 95 | 0 | 0 | 81 | 0 | 1018,9 |
| 21 | El Monte | 09-05-2026 05:00 | 7,6 | 96 | 0 | 0 | 148 | 0 | 1018,9 |
| 20 | El Monte | 09-05-2026 04:45 | 7,3 | 95 | 0 | 0 | 121 | 0 | 1018,7 |
| 19 | El Monte | 09-05-2026 04:30 | 7,3 | 95 | 0 | 0 | 152 | 0 | 1018,9 |
| 18 | El Monte | 09-05-2026 04:15 | 7,2 | 95 | 0 | 0 | 141 | 0 | 1018,9 |
| 17 | El Monte | 09-05-2026 04:00 | 7,2 | 95 | 0 | 0 | 141 | 0 | 1019 |
| 16 | El Monte | 09-05-2026 03:45 | 7,2 | 95 | 0 | 0 | 136 | 0 | 1019,1 |
| 15 | El Monte | 09-05-2026 03:30 | 7,3 | 95 | 0 | 0 | 130 | 0 | 1019,1 |
| 14 | El Monte | 09-05-2026 03:15 | 6,9 | 96 | 0 | 0 | 84 | 0 | 1019,2 |
| 13 | El Monte | 09-05-2026 03:00 | 6,6 | 95 | 0 | 0 | 119 | 0 | 1019,2 |
| 12 | El Monte | 09-05-2026 02:45 | 6,8 | 94 | 0 | 0 | 90 | 0 | 1019,4 |
| 11 | El Monte | 09-05-2026 02:30 | 6,7 | 95 | 0 | 0 | 137 | 0 | 1019,4 |
| 10 | El Monte | 09-05-2026 02:15 | 6,8 | 94 | 0 | 0 | 122 | 0 | 1019,4 |
| 9 | El Monte | 09-05-2026 02:00 | 6,9 | 94 | 0 | 0 | 124 | 0 | 1019,3 |
| 8 | El Monte | 09-05-2026 01:45 | 7,2 | 95 | 0 | 0 | 136 | 0 | 1019,4 |
| 7 | El Monte | 09-05-2026 01:30 | 7,1 | 94 | 0 | 0 | 66 | 0 | 1019,6 |
| 6 | El Monte | 09-05-2026 01:15 | 7,2 | 93 | 0 | 0 | 66 | 0 | 1019,7 |
| 5 | El Monte | 09-05-2026 01:00 | 7,4 | 94 | 0 | 0 | 100 | 0 | 1019,6 |
| 4 | El Monte | 09-05-2026 00:45 | 7,4 | 94 | 0 | 0 | 57 | 0 | 1019,6 |
| 3 | El Monte | 09-05-2026 00:30 | 7,6 | 94 | 0 | 0 | 61 | 0 | 1019,6 |
| 2 | El Monte | 09-05-2026 00:15 | 7,7 | 94 | 0 | 0 | 139 | 0 | 1019,8 |
| 1 | El Monte | 09-05-2026 00:00 | 7,2 | 92 | 0 | 0 | 239 | 0 | 1019,9 |